Toms River, NJ

4:45 PM EDT on October 15, 2019 (GMT -0400)
Miller

Weather History for KMJX - August, 2019

Change the Weather History Date:

Thursday, August 29, 2019

  Actual Average Record
Temperature  
Mean Temperature 72 °F -  
Max Temperature 84 °F 84 °F 98 °F (1973)
Min Temperature 59 °F 62 °F 39 °F (1986)
Cooling Degree Days 8    
Growing Degree Days 22 (Base 50)    
Moisture  
Dew Point 58 °F    
Average Humidity 57    
Maximum Humidity 100    
Minimum Humidity 37    
Precipitation  
Precipitation 0.02 in - - ()
Sea Level Pressure  
Sea Level Pressure 29.92 in    
Wind  
Wind Speed 8 mph (NW)    
Max Wind Speed 16 mph    
Max Gust Speed 22 mph    
Visibility 10 miles    
Events      
Averages and records for this station are not official NWS values.
T = Trace of Precipitation, MM = Missing Value Source: NWS Daily Summary

Daily Weather History Graph

Daily Weather History Graph

Search for Another Location

Airport or City:

Astronomy

Aug. 29, 2019 Rise Set
Actual Time 6:21 AM EDT 7:33 PM EDT
Civil Twilight 5:53 AM EDT 8:01 PM EDT
Nautical Twilight 5:20 AM EDT 8:34 PM EDT
Astronomical Twilight 4:45 AM EDT 9:09 PM EDT
Moon 5:04 AM EDT (8/29) 7:28 PM EDT (8/29)
Length of Visible Light 14h 07m
Length of Day
13h 11m
Waning Crescent, 1% of the Moon is Illuminated
Aug 29
Waning Crescent
Aug 30
New
Sep 5
First Quarter
Sep 14
Full
Sep 21
Last Quarter

Hourly Weather History & Observations

Time (EDT) Temp. Heat Index Dew Point Humidity Pressure Visibility Wind Dir Wind Speed Gust Speed Precip Events Conditions
12:56 AM - - - N/A% 29.84 in 10.0 mi WNW 5.8 mph - N/A   Mostly Cloudy
1:56 AM - - - N/A% 29.83 in 10.0 mi WNW 8.1 mph - N/A   Mostly Cloudy
2:56 AM - - - N/A% 29.84 in 10.0 mi NW 6.9 mph - N/A   Scattered Clouds
3:56 AM 68.0 °F - - N/A% 29.85 in 10.0 mi NNW 8.1 mph - N/A   Mostly Cloudy
4:56 AM - - - N/A% 29.85 in - NNW 6.9 mph - N/A   Unknown
5:56 AM 64.9 °F - - N/A% 29.87 in 10.0 mi NW 5.8 mph - 0.01 in   Clear
6:56 AM 64.0 °F - - N/A% 29.88 in 10.0 mi NW 6.9 mph - N/A   Clear
7:56 AM 66.9 °F - 66.9 °F 100% 29.88 in 10.0 mi NW 9.2 mph - N/A   Clear
8:56 AM 71.1 °F - 62.1 °F 73% 29.90 in 10.0 mi NW 10.4 mph - N/A   Clear
9:56 AM 73.9 °F - 61.0 °F 64% 29.92 in 10.0 mi NNW 11.5 mph - 0.01 in   Clear
10:56 AM 75.9 °F - 61.0 °F 60% 29.93 in 10.0 mi NW 11.5 mph 19.6 mph N/A   Clear
11:56 AM 80.1 °F 80.9 °F 60.1 °F 50% 29.93 in 10.0 mi NW 9.2 mph 17.3 mph N/A   Clear
12:56 PM 82.0 °F 81.7 °F 57.0 °F 42% 29.92 in 10.0 mi NW 13.8 mph - N/A   Clear
1:56 PM 82.9 °F 82.6 °F 57.9 °F 42% 29.92 in 10.0 mi WNW 16.1 mph 21.9 mph N/A   Clear
2:56 PM 82.9 °F 81.9 °F 54.0 °F 37% 29.91 in 10.0 mi WNW 10.4 mph - N/A   Clear
3:56 PM 84.0 °F 82.9 °F 55.0 °F 37% 29.91 in 10.0 mi NW 12.7 mph 18.4 mph N/A   Clear
4:56 PM 82.9 °F 82.0 °F 55.0 °F 38% 29.90 in 10.0 mi WNW 12.7 mph 18.4 mph N/A   Clear
5:56 PM 81.0 °F 80.5 °F 54.0 °F 39% 29.93 in 10.0 mi West 15.0 mph - N/A   Clear
6:56 PM 78.1 °F - 54.0 °F 43% 29.95 in 10.0 mi WNW 6.9 mph - N/A   Clear
7:56 PM 72.0 °F - 55.9 °F 57% 29.99 in 10.0 mi West 5.8 mph - N/A   Clear
8:56 PM 66.9 °F - 57.0 °F 70% 30.01 in 10.0 mi WNW 6.9 mph - N/A   Clear
9:56 PM 64.0 °F - 55.9 °F 75% 30.02 in 10.0 mi WNW 4.6 mph - N/A   Clear
10:56 PM 61.0 °F - 57.9 °F 90% 30.03 in 10.0 mi WSW 3.5 mph - N/A   Clear
11:56 PM 59.0 °F - - N/A% 30.03 in 10.0 mi Calm Calm - N/A   Clear